Seattle Boeing, WA
on Saturday, December 8, 2012

Saturday
Previous Day Next Day
Daily Summary
 ActualAverage (KSEA)Record (KSEA)
Temperature
Mean Temperature °F 41°F  
Max Temperature 44°F 46°F 59°F (1957)
Min Temperature 37°F 36°F 13°F (1972)
Degree Days
Heating Degree Days 24 24  
Month to date heating degree days 188  
Since 1 July heating degree days 1371  
Cooling Degree Days 0 0  
Month to date cooling degree days 0  
Year to date cooling degree days 189  
Moisture
Dew Point 34°F   
Average Humidity 77    
Maximum Humidity 86    
Minimum Humidity 61    
Precipitation
Precipitation 0.00 in 0.18 in 1.61 in (1971)
Month to date precipitation 1.53  
Year to date precipitation 33.67  
Snow
Snow 0.00 in in 2.20 in (1971)
Month to date snowfall  
Since 1 July snowfall  
Snow Depth in   
Wind
Wind Speed 6 mph   
Max Wind Speed 12 mph   
Max Gust Speed mph   
Visibility 10 miles   
Events     

Key: T is trace of precipitation, MM is missing value
Source: NWS Daily Summary
Time(PST)TemperatureDew PointHumidity Pressure Visibility Wind DirectionWind SpeedGust SpeedPrecipitationEvents Conditions
12:53 AM 39.9°F 34.0°F 79% 30.16 in 10.0 miles SE 4.6 mph - N/A   Clear
1:53 AM 37.9°F 34.0°F 86% 30.15 in 10.0 miles SE 8.1 mph - N/A   Mostly Cloudy
2:53 AM 39.2°F 33.8°F 81% 30.16 in 10.0 miles SSE 8.1 mph - N/A   Mostly Cloudy
3:53 AM 39.0°F 34.0°F 82% 30.16 in 10.0 miles SE 9.2 mph - N/A   Overcast
4:53 AM 39.0°F 34.0°F 82% 30.17 in 10.0 miles SE 5.8 mph - N/A   Overcast
5:53 AM 39.0°F 34.0°F 82% 30.18 in 10.0 miles SE 8.1 mph - N/A   Overcast
6:53 AM 39.0°F 34.0°F 82% 30.19 in 10.0 miles SSE 9.2 mph - N/A   Overcast
7:28 AM 39.2°F 33.8°F 81% 30.20 in 10.0 miles SE 6.9 mph - N/A   Overcast
7:53 AM 39.9°F 34.0°F 79% 30.20 in 10.0 miles SE 5.8 mph - N/A   Overcast
8:53 AM 41.0°F 35.1°F 79% 30.22 in 10.0 miles SSE 6.9 mph - N/A   Overcast
9:53 AM 42.1°F 36.0°F 79% 30.24 in 10.0 miles SE 6.9 mph - N/A   Overcast
10:00 AM 42.8°F 35.6°F 76% 30.24 in 10.0 miles SE 4.6 mph - N/A   Mostly Cloudy
10:53 AM 43.0°F 36.0°F 76% 30.25 in 10.0 miles ESE 4.6 mph - N/A   Mostly Cloudy
11:53 AM 42.1°F 35.1°F 76% 30.25 in 10.0 miles NE 6.9 mph - N/A   Overcast
12:15 PM 42.8°F 35.6°F 76% 30.25 in 10.0 miles NE 5.8 mph - N/A   Mostly Cloudy
12:22 PM 42.8°F 35.6°F 76% 30.26 in 10.0 miles NE 4.6 mph - N/A   Mostly Cloudy
12:53 PM 44.1°F 34.0°F 68% 30.26 in 10.0 miles NE 5.8 mph - N/A   Mostly Cloudy
1:53 PM 44.1°F 32.0°F 63% 30.25 in 10.0 miles North 4.6 mph - N/A   Overcast
2:00 PM 44.6°F 32.0°F 61% 30.26 in 10.0 miles NW 4.6 mph - N/A   Partly Cloudy
2:53 PM 44.1°F 33.1°F 65% 30.27 in 10.0 miles NW 11.5 mph - N/A   Clear
3:53 PM 43.0°F 34.0°F 71% 30.29 in 10.0 miles Calm Calm - N/A   Mostly Cloudy
4:53 PM 42.1°F 34.0°F 73% 30.30 in 10.0 miles NE 3.5 mph - N/A   Scattered Clouds
5:53 PM 42.1°F 35.1°F 76% 30.30 in 10.0 miles Calm Calm - N/A   Clear
6:53 PM 41.0°F 35.1°F 79% 30.31 in 10.0 miles Calm Calm - N/A   Overcast
7:53 PM 41.0°F 35.1°F 79% 30.33 in 10.0 miles Calm Calm - N/A   Overcast
8:53 PM 41.0°F 35.1°F 79% 30.33 in 10.0 miles Calm Calm - N/A   Mostly Cloudy
9:53 PM 39.9°F 35.1°F 83% 30.34 in 10.0 miles Calm Calm - N/A   Clear
10:53 PM 39.9°F 35.1°F 83% 30.35 in 10.0 miles ESE 3.5 mph - N/A   Mostly Cloudy
11:53 PM 39.9°F 34.0°F 79% 30.35 in 10.0 miles ESE 4.6 mph - N/A   Mostly Cloudy
Moon Phase
Dec. 08 Dec. 13 Dec. 20 Dec. 28 Jan. 04
Sunrise:07:44 AM (PST) Moon Rise:01:57 AM (PST)12/8
Sunset:04:17 PM (PST) Moon Set:01:07 PM (PST)12/8

Copyright © 2014 The Weather Underground, Inc.